Location: Glenview
(32.8323°N, 116.9059°W)
Time: 18:54:41
(UTC+00:00)

Daily predictions for brighter satellites

Satellite Brightness Start Highest point End
(mag) Time Altitude Azimuth Time Altitude Azimuth Time Altitude Azimuth
ATLAS 5 CENTAUR R/B 2.2 12:05:18 44° NE 12:05:18 44° NE 12:08:14 10° NNE
CZ-2C R/B 4.1 12:07:19 10° SSE 12:08:31 11° SE 12:09:43 10° SE
CZ-2C R/B 4.1 12:06:05 10° N 12:07:32 19° NNW 12:07:32 19° NNW
NOSS 3-4 (A) 3.2 12:09:11 56° SSW 12:10:30 88° WNW 12:16:34 10° NNE
NOSS 3-4 (C) 3.2 12:09:15 55° SSW 12:10:36 89° WNW 12:16:40 10° NNE
Milstar 3 Cent rocket 2.2 12:11:55 52° S 12:12:09 53° S 12:16:37 10° ESE
Meteor 1-31 Rocket 4.0 12:17:13 10° NNE 12:20:53 41° E 12:24:29 10° S
CZ-4C R/B 1.9 12:23:22 54° WNW 12:23:33 54° WNW 12:28:52 10° NNE
Cosmos 2322 4.1 12:18:15 10° NNW 12:23:53 64° ENE 12:29:27 10° SSE
FENGYUN 3A 3.6 12:18:35 10° N 12:23:57 63° WNW 12:25:55 38° SW
ATLAS 2AS CENTAUR R/B 3.1 12:18:18 14° SSW 12:25:19 78° ESE 12:33:13 10° NNE
ADEOS 4.0 12:20:29 10° NNE 12:25:39 62° ESE 12:30:48 10° S
Cosmos 1805 Rocket 3.4 12:21:33 10° N 12:26:01 79° W 12:30:26 10° S
Landsat 5 3.0 12:23:33 10° S 12:27:21 81° WSW 12:31:13 10° NNW
Delta 2 Rocket 3.9 12:26:45 48° NW 12:27:50 63° N 12:32:57 10° E
Meteor 2-17 Rocket 4.3 12:24:39 10° N 12:30:41 73° W 12:36:42 10° S
Cosmos 1437 Rocket 3.0 12:32:32 10° S 12:36:37 71° E 12:40:38 10° NNE
NOSS 7 (H) 4.5 12:39:14 32° SSW 12:40:57 86° ESE 12:44:11 10° NNE
Cosmos 1484 Rocket 3.6 12:39:25 10° N 12:41:55 31° NW 12:41:55 31° NW
Meteor 1-20 Rocket 4.3 12:38:14 10° N 12:44:00 82° E 12:49:49 10° S
Sich 1 2.9 12:40:01 10° NNW 12:44:22 63° W 12:48:39 10° S
Cosmos 1782 2.8 12:40:30 10° S 12:44:25 78° E 12:48:21 10° N
GPS 2-04 Rocket1 2.9 12:45:07 38° NW 12:46:09 53° N 12:49:54 10° E
Cosmos 2360 Rocket 2.8 12:46:08 22° WNW 12:48:41 32° WSW 12:53:38 10° SSW
Cosmos 1666 Rocket 3.6 12:45:19 10° N 12:49:42 83° E 12:54:07 10° S
CZ-3 R/B 3.1 12:36:22 19° WSW 12:52:42 60° S 12:59:12 10° E
Sakura Rocket 3.5 12:52:23 28° WSW 12:53:53 40° S 12:57:23 10° ESE
Cosmos 2333 4.3 12:49:13 10° NNW 12:54:53 58° WSW 13:00:31 10° S
Cosmos 2237 Rocket 4.4 12:50:48 10° N 12:55:30 26° ENE 13:00:11 10° ESE
USA 238 DEB 3.9 12:53:39 10° NW 13:01:00 70° WSW 13:08:35 10° SSE
USA 238 3.9 12:53:45 10° NW 13:01:06 70° WSW 13:08:41 10° SSE
Cosmos 1954 Rocket 4.1 12:56:10 10° SSW 13:01:26 82° ESE 13:06:43 10° NNE
H-2A R/B 2.1 12:59:35 10° S 13:03:44 50° W 13:07:49 10° NNW
CZ-4B R/B 2.1 13:03:04 10° SSE 13:06:07 52° ENE 13:09:07 10° N
Cosmos 2227 Rocket 2.8 13:01:47 10° S 13:07:20 60° ESE 13:12:55 10° NNE
Cosmos 1151 Rocket 3.3 13:03:27 10° SSW 13:07:33 42° W 13:11:38 10° N
Cosmos 407 Rocket 4.0 13:03:39 13° SW 13:07:41 35° WNW 13:12:24 10° N
CZ-4B R/B 4.2 13:07:18 10° N 13:10:39 35° WNW 13:13:59 10° SW
SKYMED 2 3.5 13:09:40 10° SSE 13:14:00 87° W 13:18:21 10° NNW
Cosmos 2333 Rocket 2.4 13:10:01 10° NNW 13:15:31 48° WSW 13:21:00 10° S
ALOS 3.9 13:16:32 10° NNW 13:19:11 15° WNW 13:20:25 14° W
Cosmos 2074 Rocket 4.0 13:14:01 10° NNW 13:20:09 65° W 13:26:15 10° S
Skynet4D Del rocket 4.2 13:15:46 14° WSW 13:20:09 44° S 13:25:13 10° ESE
Cosmos 1633 Rocket 3.2 13:17:09 10° NNW 13:21:23 48° W 13:25:34 10° SSW
Centaur D AC-25 3.4 13:12:01 14° W 13:21:41 54° S 13:25:28 10° ESE
Cosmos 2297 Rocket 2.1 13:17:00 10° SSW 13:22:37 75° WNW 13:28:17 10° NNE
Cosmos 1602 3.9 13:19:24 10° NNW 13:23:10 48° W 13:26:54 10° SSW
OAO 3 Rocket 3.3 13:20:01 13° WNW 13:24:19 73° N 13:29:07 10° E
YAOGAN 6 2.6 13:22:02 10° NNE 13:25:32 82° ESE 13:28:59 10° S
Cosmos 676 Rocket 4.1 13:20:26 10° SSW 13:25:39 58° WNW 13:30:52 10° N
Cosmos 2154 Rocket 4.1 13:20:31 10° N 13:26:48 89° E 13:33:05 10° S
Cosmos 2219 Rocket 2.7 13:27:31 10° NW 13:32:43 38° WSW 13:37:55 10° S
Lacrosse 5 2.1 13:28:07 10° NW 13:33:01 50° WSW 13:37:53 10° SSE
Cosmos 1980 4.1 13:34:46 10° NNW 13:40:26 71° ENE 13:46:04 10° SSE
CENTAUR R/B 3.6 13:35:05 10° NW 13:43:12 48° WSW 13:51:36 10° S
Envisat 3.0 13:38:46 10° N 13:43:47 65° WNW 13:48:48 10° SSW
USA 234 4.4 13:39:30 10° S 13:44:14 21° WSW 13:49:00 10° WNW
Cosmos 2184 Rocket 4.5 13:40:24 10° NNW 13:46:15 40° W 13:52:05 10° SSW
COSMOS 2428 3.3 13:41:26 10° NW 13:46:34 35° WSW 13:51:41 10° SSW
